GPS BIIF-2 (37753 NORAD) Tracking and Keplerian Element Data

This shows tracking and keplerian element data for the satellite.

Feedback or suggestion? Click here.




ElementValue
Catalog37753
NameGPS BIIF-2
Epoch Orbit9149
Epoch Day12.85154765
Epoch Year2024
RAAN6.4068
Inclination56.7597
Eccentricity0.0129109
Argument of Perigee56.5323
Mean Anonmoly288.2007
Mean Motion2.00523366
Decay Rate-6.3E-07
L11 37753U 11036A 24012.85154765 -.00000063 00000+0 00000+0 0 9994
L22 37753 56.7597 6.4068 0129109 56.5323 288.2007 2.00523366 91493



Live tracking and technical data element details for GPS BIIF-2 (NORAD 37753). GPS BIIF-2 can be tracked NOW for your location showing map with azimuth and elevation plus other details from your city location.







IsCatalogInMostPopularTable: catalog: 37753, numindb: 556
Update: records affected: 1



GetName: 37753 GPS BIIF-2

Hit Count: updated at: Sat, 24 May 2025 16:39:06 GMT